Location: Houhaj�rvi
(61.2833°N, 23.0000°E)
Time: 00:29:51
(UTC+00:00)

Cosmos 1441 Rocket - Pass Details

Date: 27 February 2020
Orbit: 496 x 541 km, 81.1° (Epoch: 04 April)

Event Time Altitude Azimuth Distance (km) Brightness Sun altitude
Exits shadow 18:26:35 29° 42° (NE) 1,017 4.4 -19.8°
Drops below altitude 10° 18:28:46 10° 25° (NNE) 1,814 5.9 -20.1°
Sets 18:30:59 0° 20° (NNE) 2,715 6.9 -20.3°
